This demonstration page uses our WeatherBlox Daily Observations layout. Learn more.

Left ArrowRight Arrow

40.92945, -100.16068

Hourly Observations for May 13, 2020

Temp ( °F °C ) Dew Point ( °F °C ) Humidity (%) Winds ( mph kmh ) Pressure ( in mb ) Visibility ( mi km ) Precip ( " mm )
12:15 am 00:15 Cloudy 47 8.3 43 6.2 87 87 SSE 18 30 29.99 1015 10 16.0934 0 0
12:35 am 00:35 Cloudy 47 8.2 43 6.3 88 88 SSE 18 30 29.99 1016 10 16.0934 0 0
12:55 am 00:55 Cloudy 46 7.8 44 6.5 92 92 SSE 18 30 29.99 1016 10 16.0934 0 0
1:15 am 01:15 Cloudy 45 7.2 44 6.6 96 96 SSE 14 22 30 1016 7 11.26538 0 0
1:35 am 01:35 Cloudy 45 7.1 44 6.5 96 96 SSE 17 28 30.01 1016 10 16.0934 0 0
1:55 am 01:55 Cloudy 45 7 44 6.5 97 97 SSE 14 22 30.01 1016 7 11.26538 0 0
2:15 am 02:15 Cloudy 45 7 44 6.6 97 97 SSE 13 20 30 1016 7 11.26538 0 0
2:35 am 02:35 Cloudy 45 7 44 6.5 97 97 SSE 16 26 29.98 1015 7 11.26538 0 0
2:55 am 02:55 Cloudy 45 7 44 6.6 97 97 SSE 16 26 29.98 1015 7 11.26538 0 0
3:15 am 03:15 Cloudy with Mist and Fog 45 7 44 6.8 99 99 SSE 15 24 29.96 1015 5 8.0467 0 0
3:35 am 03:35 Cloudy with Mist and Fog 45 7 44 6.9 99 99 SSE 16 26 29.95 1014 3 4.82802 0 0
3:55 am 03:55 Cloudy with Mist and Fog 45 7 44 6.9 99 99 SSE 15 24 29.95 1014 4 6.43736 0 0
4:15 am 04:15 Cloudy with Mist and Fog 45 7 44 6.9 99 99 SSE 13 20 29.94 1014 5 8.0467 0 0
4:35 am 04:35 Cloudy with Mist and Fog 45 7 44 6.8 99 99 S 14 22 29.93 1014 5 8.0467 0 0
4:55 am 04:55 Cloudy with Mist and Fog 45 7 44 6.8 99 99 SSE 14 22 29.93 1014 5 8.0467 0 0
5:15 am 05:15 Cloudy with Mist and Fog 45 7 45 7 100 100 SSE 10 17 29.93 1014 4 6.43736 0 0
5:35 am 05:35 Cloudy with Mist and Fog 45 7 45 7 100 100 SSE 10 17 29.92 1013 4 6.43736 0 0
5:55 am 05:55 Cloudy with Mist and Fog 45 7.1 45 7 99 99 SE 14 22 29.9 1012 4 6.43736 0 0
6:15 am 06:15 Cloudy with Mist and Fog 45 7.1 45 7 99 99 SSE 12 19 29.91 1013 5 8.0467 0 0
6:35 am 06:35 Cloudy with Mist and Fog 45 7.2 45 7.1 99 99 SE 12 19 29.9 1012 4 6.43736 0 0
6:55 am 06:55 Cloudy with Mist and Fog 45 7.2 45 7.1 99 99 SE 12 19 29.9 1012 2 3.21868 0 0
7:15 am 07:15 Cloudy with Mist and Fog 45 7.2 45 7.1 99 99 SE 13 20 29.9 1012 2.5 4.02335 0 0
7:35 am 07:35 Cloudy with Mist and Fog 45 7.3 45 7.2 99 99 SSE 13 20 29.91 1013 3 4.82802 0 0
7:55 am 07:55 Cloudy with Mist and Fog 45 7.3 45 7.2 99 99 SSE 12 19 29.91 1013 2 3.21868 0 0
8:15 am 08:15 Cloudy with Mist and Fog 46 7.5 45 7.4 99 99 SSE 13 20 29.9 1013 2 3.21868 0 0
8:35 am 08:35 Cloudy with Mist and Fog 46 7.5 46 7.5 100 100 SSE 10 17 29.89 1012 2 3.21868 0.01 0.254
8:55 am 08:55 Cloudy with Mist and Fog 46 7.7 46 7.6 99 99 SE 12 19 29.88 1012 2 3.21868 0.01 0.254
9:15 am 09:15 Cloudy with Mist and Fog 46 7.7 46 7.6 99 99 SSE 12 19 29.88 1012 2.5 4.02335 0 0
9:35 am 09:35 Cloudy with Mist and Fog 47 8.1 46 8 99 99 SSE 13 20 29.87 1011 2 3.21868 0 0
9:55 am 09:55 Cloudy with Mist and Fog 47 8.2 46 7.9 98 98 SSE 16 26 29.86 1011 3 4.82802 0 0
10:15 am 10:15 Cloudy with Mist and Fog 47 8.4 47 8.1 98 98 SSE 18 30 29.85 1011 2.5 4.02335 0 0
10:35 am 10:35 undefined N/A N/A N/A undefined N/A N/A N/A 0 0
10:55 am 10:55 undefined N/A N/A N/A undefined N/A N/A N/A 0 0
11:15 am 11:15 undefined N/A N/A N/A undefined N/A N/A N/A 0 0
11:35 am 11:35 Cloudy 48 9 46 8 94 94 SSE 17 28 29.83 1010 N/A 0.03 0.762
11:55 am 11:55 Cloudy with Mist and Fog 48 9.1 47 8.2 94 94 SSE 17 28 29.82 1010 4 6.43736 0.03 0.762
12:15 pm 12:15 Cloudy 49 9.5 47 8.5 94 94 SSE 17 28 29.82 1010 7 11.26538 0 0
12:35 pm 12:35 Cloudy 49 9.7 47 8.6 93 93 S 15 24 29.81 1010 7 11.26538 0 0
12:55 pm 12:55 Cloudy with Mist and Fog 50 9.9 48 8.9 94 94 SSE 15 24 29.8 1009 5 8.0467 0 0
1:15 pm 13:15 Cloudy 50 10 48 8.7 92 92 S 18 30 29.8 1009 7 11.26538 0 0
1:35 pm 13:35 Cloudy 50 10.2 48 9 92 92 SSE 15 24 29.8 1009 10 16.0934 0 0
1:55 pm 13:55 Cloudy 51 10.3 48 9.1 92 92 SSE 14 22 29.79 1009 10 16.0934 0 0
2:15 pm 14:15 Cloudy 51 10.8 49 9.6 92 92 SSE 14 22 29.77 1008 10 16.0934 0 0
2:35 pm 14:35 Cloudy 52 11 49 9.6 91 91 S 9 15 29.79 1009 7 11.26538 0 0
2:55 pm 14:55 Cloudy 52 11.1 50 9.9 92 92 S 9 15 29.79 1009 7 11.26538 0 0
3:15 pm 15:15 Cloudy with Mist and Fog 52 11.1 50 10 93 93 S 10 17 29.78 1009 4 6.43736 0 0
3:35 pm 15:35 Cloudy with Mist and Fog 52 11.3 51 10.4 94 94 S 6 9 29.78 1008 3 4.82802 0 0
3:55 pm 15:55 Cloudy with Mist and Fog 52 11.3 51 10.3 94 94 S 9 15 29.77 1008 4 6.43736 0 0
4:15 pm 16:15 Cloudy with Mist and Fog 53 11.4 51 10.5 94 94 S 6 9 29.77 1008 4 6.43736 0 0
4:35 pm 16:35 Cloudy with Mist and Fog 53 11.5 51 10.5 94 94 S 7 11 29.77 1008 4 6.43736 0 0
4:55 pm 16:55 Cloudy with Mist and Fog 53 11.6 51 10.7 94 94 SSE 7 11 29.76 1008 4 6.43736 0 0
5:15 pm 17:15 Cloudy with Mist and Fog 54 12 52 11.1 94 94 S 7 11 29.75 1008 5 8.0467 0 0
5:35 pm 17:35 Cloudy 54 12.2 51 10.8 91 91 S 9 15 29.75 1007 10 16.0934 0 0
5:55 pm 17:55 Cloudy 55 12.9 52 10.9 88 88 S 8 13 29.73 1007 10 16.0934 0 0
6:15 pm 18:15 Cloudy 55 13 52 10.9 87 87 S 7 11 29.74 1007 10 16.0934 0 0
6:35 pm 18:35 Cloudy 55 13 52 10.9 87 87 SSW 6 9 29.74 1007 10 16.0934 0 0
6:55 pm 18:55 Cloudy 56 13.1 52 11 87 87 SSE 9 15 29.72 1007 10 16.0934 0 0
7:15 pm 19:15 Cloudy 55 13 52 11 88 88 S 6 9 29.72 1007 10 16.0934 0 0
7:35 pm 19:35 Cloudy 56 13.1 52 11 87 87 S 6 9 29.72 1007 10 16.0934 0 0
7:55 pm 19:55 Cloudy 55 12.8 52 11 89 89 S 5 7 29.74 1007 10 16.0934 0 0
8:15 pm 20:15 Cloudy 55 13 52 11 88 88 Calm 29.74 1007 10 16.0934 0 0
8:35 pm 20:35 Cloudy 55 12.7 52 11.1 90 90 Calm 29.75 1007 10 16.0934 0 0
8:55 pm 20:55 Cloudy 54 12.4 52 11 91 91 NW 3 6 29.77 1008 10 16.0934 0 0
9:15 pm 21:15 Cloudy 53 11.5 51 10.6 94 94 NNW 7 11 29.79 1009 10 16.0934 0 0
9:35 pm 21:35 Cloudy 54 12 51 10.7 92 92 NW 6 9 29.79 1009 10 16.0934 0 0
9:55 pm 21:55 Cloudy 54 12 51 10.7 92 92 Calm 29.8 1009 10 16.0934 0 0
10:15 pm 22:15 Cloudy 54 12.2 51 10.6 90 90 Calm 29.8 1009 10 16.0934 0 0
10:35 pm 22:35 Cloudy 53 11.7 51 10.7 94 94 NE 3 6 29.82 1010 10 16.0934 0 0
10:55 pm 22:55 Cloudy 53 11.7 51 10.6 93 93 NE 5 7 29.81 1009 10 16.0934 0 0
11:15 pm 23:15 Cloudy 53 11.5 51 10.4 93 93 Calm 29.8 1009 10 16.0934 0 0
11:35 pm 23:35 Partly Cloudy 51 10.3 49 9.5 95 95 E 5 7 29.8 1009 10 16.0934 0 0
11:55 pm 23:55 Clear 48 8.7 47 8.1 96 96 ESE 5 7 29.82 1010 10 16.0934 0 0

Powered by AerisWeather